パンスターズ彗星

P/2015 T3 ( PanSTARRS )

English version
Home page
Updated on November 1, 2015

---------------------------------------------------------------------

・ プロフィール

発見日 2015年10月13日
発見光度 20.9等
発見者 Pan-STARRS 1 telescope (Haleakala)

・ 写真集

・ 軌道要素

T 2014 Dec. 21.70570 TT                                 MPCW
q   2.1276976            (2000.0)            P               Q
n   0.10953353     Peri.  178.63296     +0.48740200     +0.85108097
a   4.3261808      Node   120.50194     -0.80325938     +0.52467687
e   0.5081811      Incl.   13.09371     -0.34236479     -0.01937423
P   9.00
From 38 observations 2015 Oct. 13-16.

・ 光度変化

        m1 = 13.5 + 5 logΔ + 10.0 log r

---------------------------------------------------------------------

軌道要素はM.P.E.C. 2015-U02に掲載されたものです。
光度グラフはComet for Windowsで作成したものです。

---------------------------------------------------------------------

Copyright(C) Seiichi Yoshida (comet@aerith.net). All rights reserved.